| time (UTC) | temp F | wind direction | speed MPH | gust MPH | rain 1hr in | rain 24hr in | rain mn in | humidity % | barometer mb |
| 20260509233204 | 70 | 155 | 2.0 | 8.0 | 0.00 | 0.00 | 0.00 | 63 | 1013.9 |
| 20260509232705 | 70 | 178 | 2.0 | 6.0 | 0.00 | 0.00 | 0.00 | 64 | 1013.9 |
| 20260509232204 | 70 | 95 | 3.0 | 6.0 | 0.00 | 0.00 | 0.00 | 64 | 1014.0 |
| 20260509231705 | 70 | 122 | 2.0 | 8.0 | 0.00 | 0.00 | 0.00 | 64 | 1014.0 |
| 20260509231204 | 70 | 123 | 3.0 | 8.0 | 0.00 | 0.00 | 0.00 | 65 | 1014.1 |
| 20260509230704 | 69 | 134 | 3.0 | 8.0 | 0.00 | 0.00 | 0.00 | 65 | 1014.0 |
| 20260509230204 | 69 | 136 | 4.0 | 7.0 | 0.00 | 0.00 | 0.00 | 66 | 1014.1 |
| 20260509225205 | 69 | 148 | 3.0 | 7.0 | 0.00 | 0.00 | 0.00 | 66 | 1014.1 |
| 20260509224205 | 69 | 115 | 4.0 | 6.0 | 0.00 | 0.00 | 0.00 | 66 | 1014.2 |
| 20260509223704 | 68 | 121 | 3.0 | 6.0 | 0.00 | 0.00 | 0.00 | 66 | 1014.3 |
| 20260509223204 | 68 | 113 | 3.0 | 8.0 | 0.00 | 0.00 | 0.00 | 69 | 1014.4 |
| 20260509222704 | 68 | 118 | 3.0 | 8.0 | 0.00 | 0.00 | 0.00 | 70 | 1014.5 |
| 20260509222205 | 67 | 123 | 4.0 | 8.0 | 0.00 | 0.00 | 0.00 | 70 | 1014.6 |
| 20260509221704 | 68 | 123 | 4.0 | 8.0 | 0.00 | 0.00 | 0.00 | 70 | 1014.6 |
| 20260509221205 | 68 | 126 | 3.0 | 8.0 | 0.00 | 0.00 | 0.00 | 70 | 1014.6 |
| 20260509220705 | 67 | 148 | 3.0 | 8.0 | 0.00 | 0.00 | 0.00 | 71 | 1014.6 |
| 20260509214705 | 67 | 147 | 3.0 | 7.0 | 0.00 | 0.00 | 0.00 | 73 | 1014.7 |
| 20260509214204 | 67 | 144 | 3.0 | 8.0 | 0.00 | 0.00 | 0.00 | 74 | 1014.8 |
| 20260509213706 | 66 | 120 | 4.0 | 8.0 | 0.00 | 0.00 | 0.00 | 74 | 1014.8 |
| 20260509213205 | 65 | 109 | 4.0 | 8.0 | 0.00 | 0.00 | 0.00 | 75 | 1014.9 |
| 20260509212705 | 65 | 123 | 5.0 | 8.0 | 0.00 | 0.00 | 0.00 | 75 | 1015.0 |
| 20260509212205 | 65 | 98 | 5.0 | 9.0 | 0.00 | 0.00 | 0.00 | 76 | 1015.0 |
| 20260509211204 | 64 | 123 | 4.0 | 9.0 | 0.00 | 0.00 | 0.00 | 76 | 1015.1 |
| 20260509210704 | 64 | 137 | 4.0 | 8.0 | 0.00 | 0.00 | 0.00 | 77 | 1015.2 |
| 20260509210204 | 64 | 112 | 4.0 | 8.0 | 0.00 | 0.00 | 0.00 | 77 | 1015.2 |
| 20260509205706 | 64 | 123 | 4.0 | 8.0 | 0.00 | 0.00 | 0.00 | 77 | 1015.3 |
| 20260509205204 | 63 | 67 | 4.0 | 9.0 | 0.00 | 0.00 | 0.00 | 77 | 1015.3 |
| 20260509204705 | 64 | 112 | 4.0 | 9.0 | 0.00 | 0.00 | 0.00 | 78 | 1015.4 |
| 20260509204204 | 63 | 123 | 5.0 | 9.0 | 0.00 | 0.00 | 0.00 | 78 | 1015.4 |
| 20260509203704 | 63 | 138 | 5.0 | 9.0 | 0.00 | 0.00 | 0.00 | 77 | 1015.7 |
| 20260509203205 | 63 | 140 | 4.0 | 9.0 | 0.00 | 0.00 | 0.00 | 77 | 1015.7 |
| 20260509202704 | 63 | 122 | 3.0 | 9.0 | 0.00 | 0.00 | 0.00 | 78 | 1015.7 |
| 20260509202204 | 63 | 120 | 3.0 | 9.0 | 0.00 | 0.00 | 0.00 | 77 | 1015.8 |
| 20260509201705 | 63 | 113 | 3.0 | 8.0 | 0.00 | 0.00 | 0.00 | 77 | 1015.8 |
| 20260509201204 | 63 | 138 | 4.0 | 9.0 | 0.00 | 0.00 | 0.00 | 78 | 1015.8 |
| 20260509200704 | 62 | 79 | 4.0 | 9.0 | 0.00 | 0.00 | 0.00 | 77 | 1015.9 |
| 20260509200205 | 63 | 103 | 4.0 | 9.0 | 0.00 | 0.00 | 0.00 | 79 | 1016.0 |
| 20260509195704 | 62 | 157 | 3.0 | 9.0 | 0.00 | 0.00 | 0.00 | 78 | 1016.0 |
| 20260509195204 | 63 | 200 | 4.0 | 9.0 | 0.00 | 0.00 | 0.00 | 78 | 1016.1 |
| 20260509194206 | 62 | 117 | 4.0 | 8.0 | 0.00 | 0.00 | 0.00 | 79 | 1016.2 |
| 20260509193704 | 62 | 130 | 3.0 | 7.0 | 0.00 | 0.00 | 0.00 | 80 | 1016.3 |
| 20260509193204 | 62 | 109 | 3.0 | 9.0 | 0.00 | 0.00 | 0.00 | 81 | 1016.3 |
| 20260509192705 | 61 | 213 | 3.0 | 9.0 | 0.00 | 0.00 | 0.00 | 82 | 1016.3 |
| 20260509192204 | 60 | 179 | 3.0 | 7.0 | 0.00 | 0.00 | 0.00 | 83 | 1016.3 |
| 20260509191706 | 60 | 130 | 3.0 | 9.0 | 0.00 | 0.00 | 0.00 | 84 | 1016.4 |
| 20260509191204 | 59 | 164 | 3.0 | 9.0 | 0.00 | 0.00 | 0.00 | 84 | 1016.5 |
| 20260509190705 | 59 | 182 | 3.0 | 6.0 | 0.00 | 0.00 | 0.00 | 84 | 1016.6 |
| 20260509190204 | 59 | 141 | 2.0 | 7.0 | 0.00 | 0.00 | 0.00 | 85 | 1016.6 |
| 20260509185704 | 58 | 153 | 3.0 | 7.0 | 0.00 | 0.00 | 0.00 | 86 | 1016.7 |
| 20260509185205 | 58 | 154 | 3.0 | 7.0 | 0.00 | 0.00 | 0.00 | 86 | 1016.8 |
| 20260509184705 | 58 | 214 | 3.0 | 7.0 | 0.00 | 0.00 | 0.00 | 87 | 1016.7 |
| 20260509184204 | 58 | 175 | 3.0 | 7.0 | 0.00 | 0.00 | 0.00 | 87 | 1016.9 |
| 20260509183704 | 57 | 153 | 3.0 | 6.0 | 0.00 | 0.00 | 0.00 | 88 | 1016.8 |
| 20260509182704 | 57 | 156 | 3.0 | 6.0 | 0.00 | 0.00 | 0.00 | 89 | 1016.8 |
| 20260509181704 | 56 | 130 | 2.0 | 7.0 | 0.00 | 0.00 | 0.00 | 90 | 1016.9 |
| 20260509181204 | 56 | 137 | 3.0 | 7.0 | 0.00 | 0.00 | 0.00 | 90 | 1017.0 |
| 20260509180704 | 56 | 119 | 3.0 | 7.0 | 0.00 | 0.00 | 0.00 | 90 | 1016.9 |
| 20260509180204 | 56 | 170 | 2.0 | 7.0 | 0.00 | 0.00 | 0.00 | 91 | 1017.0 |
| 20260509175704 | 56 | 92 | 2.0 | 6.0 | 0.00 | 0.00 | 0.00 | 91 | 1016.9 |
| 20260509174705 | 56 | 171 | 2.0 | 5.0 | 0.00 | 0.00 | 0.00 | 92 | 1016.9 |
| 20260509174206 | 55 | 128 | 2.0 | 5.0 | 0.00 | 0.00 | 0.00 | 92 | 1017.0 |
| 20260509173705 | 55 | 127 | 2.0 | 5.0 | 0.00 | 0.00 | 0.00 | 92 | 1017.0 |
| 20260509173204 | 55 | 214 | 1.0 | 4.0 | 0.00 | 0.00 | 0.00 | 92 | 1016.9 |
| 20260509172204 | 55 | 207 | 2.0 | 7.0 | 0.00 | 0.00 | 0.00 | 92 | 1016.9 |
| 20260509171204 | 54 | 113 | 2.0 | 6.0 | 0.00 | 0.00 | 0.00 | 92 | 1016.9 |
| 20260509170705 | 54 | 165 | 1.0 | 6.0 | 0.00 | 0.00 | 0.00 | 92 | 1016.8 |
| 20260509170204 | 54 | 82 | 2.0 | 6.0 | 0.00 | 0.00 | 0.00 | 92 | 1016.8 |
| 20260509165704 | 54 | 117 | 2.0 | 4.0 | 0.00 | 0.00 | 0.00 | 92 | 1016.9 |
| 20260509165204 | 54 | 57 | 1.0 | 4.0 | 0.00 | 0.00 | 0.00 | 92 | 1017.0 |
| 20260509164704 | 54 | 135 | 1.0 | 4.0 | 0.00 | 0.00 | 0.00 | 92 | 1017.0 |
| 20260509164204 | 54 | 136 | 1.0 | 5.0 | 0.00 | 0.00 | 0.00 | 92 | 1017.0 |
| 20260509163704 | 54 | 110 | 2.0 | 5.0 | 0.00 | 0.00 | 0.00 | 92 | 1017.0 |
| 20260509163205 | 54 | 124 | 3.0 | 5.0 | 0.00 | 0.00 | 0.00 | 92 | 1017.1 |
| 20260509162704 | 54 | 124 | 2.0 | 5.0 | 0.00 | 0.00 | 0.00 | 92 | 1017.1 |
| 20260509161704 | 54 | 103 | 0.0 | 4.0 | 0.00 | 0.00 | 0.00 | 92 | 1017.1 |
| 20260509160704 | 54 | 107 | 1.0 | 4.0 | 0.00 | 0.00 | 0.00 | 92 | 1017.2 |
| 20260509160204 | 54 | 144 | 0.0 | 4.0 | 0.00 | 0.00 | 0.00 | 92 | 1017.2 |
| 20260509155704 | 54 | 144 | 1.0 | 4.0 | 0.00 | 0.00 | 0.00 | 92 | 1017.2 |
| 20260509155204 | 54 | 192 | 1.0 | 4.0 | 0.00 | 0.00 | 0.00 | 92 | 1017.2 |
| 20260509154704 | 54 | 153 | 1.0 | 4.0 | 0.00 | 0.00 | 0.00 | 92 | 1017.2 |
| 20260509154204 | 54 | 178 | 1.0 | 5.0 | 0.00 | 0.00 | 0.00 | 92 | 1017.2 |
| 20260509153705 | 54 | 120 | 2.0 | 5.0 | 0.00 | 0.00 | 0.00 | 92 | 1017.1 |
| 20260509153204 | 53 | 90 | 2.0 | 5.0 | 0.00 | 0.00 | 0.00 | 92 | 1017.0 |
| 20260509152705 | 54 | 111 | 1.0 | 4.0 | 0.00 | 0.00 | 0.00 | 92 | 1017.0 |
| 20260509152206 | 54 | 132 | 1.0 | 4.0 | 0.00 | 0.00 | 0.00 | 92 | 1017.0 |
| 20260509151205 | 53 | 133 | 1.0 | 3.0 | 0.00 | 0.00 | 0.00 | 92 | 1017.0 |
| 20260509150704 | 53 | 58 | 0.0 | 0.0 | 0.00 | 0.00 | 0.00 | 92 | 1017.0 |
| 20260509150204 | 53 | 279 | 0.0 | 0.0 | 0.00 | 0.00 | 0.00 | 92 | 1017.0 |
| 20260509145705 | 53 | 279 | 0.0 | 3.0 | 0.00 | 0.00 | 0.00 | 92 | 1017.0 |
| 20260509144704 | 52 | 279 | 1.0 | 3.0 | 0.00 | 0.00 | 0.00 | 92 | 1017.1 |
| 20260509143704 | 52 | 290 | 0.0 | 0.0 | 0.00 | 0.00 | 0.00 | 92 | 1017.0 |
| 20260509143204 | 52 | 296 | 0.0 | 0.0 | 0.00 | 0.00 | 0.00 | 92 | 1016.9 |
| 20260509142705 | 53 | 274 | 0.0 | 0.0 | 0.00 | 0.00 | 0.00 | 92 | 1016.8 |
| 20260509142204 | 53 | 279 | 0.0 | 0.0 | 0.00 | 0.00 | 0.00 | 92 | 1016.8 |
| 20260509141704 | 52 | 279 | 0.0 | 0.0 | 0.00 | 0.00 | 0.00 | 92 | 1016.7 |
| 20260509141204 | 52 | 278 | 0.0 | 0.0 | 0.00 | 0.00 | 0.00 | 92 | 1016.6 |
| 20260509140704 | 53 | 278 | 0.0 | 0.0 | 0.00 | 0.00 | 0.00 | 92 | 1016.6 |
| 20260509140205 | 53 | 278 | 0.0 | 0.0 | 0.00 | 0.00 | 0.00 | 92 | 1016.5 |
| 20260509135204 | 53 | 284 | 0.0 | 0.0 | 0.00 | 0.00 | 0.00 | 92 | 1016.5 |
| 20260509134205 | 53 | 267 | 0.0 | 2.0 | 0.00 | 0.00 | 0.00 | 92 | 1016.5 |
| 20260509133704 | 53 | 267 | 0.0 | 3.0 | 0.00 | 0.00 | 0.00 | 92 | 1016.4 |
| 20260509133204 | 53 | 267 | 0.0 | 4.0 | 0.00 | 0.00 | 0.00 | 91 | 1016.3 |
| 20260509132704 | 53 | 267 | 1.0 | 4.0 | 0.00 | 0.00 | 0.00 | 91 | 1016.3 |
| 20260509132205 | 53 | 267 | 2.0 | 3.0 | 0.00 | 0.00 | 0.00 | 91 | 1016.4 |
| 20260509131705 | 53 | 233 | 2.0 | 3.0 | 0.00 | 0.00 | 0.00 | 92 | 1016.3 |
| 20260509131205 | 53 | 267 | 2.0 | 3.0 | 0.00 | 0.00 | 0.00 | 92 | 1016.3 |
| 20260509130704 | 53 | 255 | 1.0 | 3.0 | 0.00 | 0.00 | 0.00 | 92 | 1016.3 |
| 20260509130206 | 53 | 295 | 1.0 | 3.0 | 0.00 | 0.00 | 0.00 | 91 | 1016.2 |
| 20260509125705 | 53 | 289 | 1.0 | 3.0 | 0.00 | 0.00 | 0.00 | 91 | 1016.2 |
| 20260509125205 | 53 | 289 | 1.0 | 3.0 | 0.00 | 0.00 | 0.00 | 91 | 1016.2 |
| 20260509124704 | 53 | 289 | 1.0 | 4.0 | 0.00 | 0.00 | 0.00 | 91 | 1016.3 |
| 20260509124205 | 53 | 289 | 2.0 | 5.0 | 0.00 | 0.00 | 0.00 | 91 | 1016.2 |
| 20260509123704 | 53 | 289 | 2.0 | 5.0 | 0.00 | 0.00 | 0.00 | 91 | 1016.2 |
| 20260509123205 | 53 | 288 | 2.0 | 4.0 | 0.00 | 0.00 | 0.00 | 91 | 1016.3 |
| 20260509122704 | 53 | 293 | 2.0 | 4.0 | 0.00 | 0.00 | 0.00 | 92 | 1016.3 |
| 20260509121704 | 53 | 277 | 2.0 | 5.0 | 0.00 | 0.00 | 0.00 | 91 | 1016.2 |
| 20260509121205 | 53 | 287 | 2.0 | 5.0 | 0.00 | 0.00 | 0.00 | 92 | 1016.2 |
| 20260509115705 | 53 | 296 | 0.0 | 4.0 | 0.00 | 0.00 | 0.00 | 92 | 1016.3 |
| 20260509114204 | 53 | 323 | 2.0 | 4.0 | 0.00 | 0.00 | 0.00 | 92 | 1016.3 |
| 20260509113704 | 53 | 309 | 1.0 | 4.0 | 0.00 | 0.00 | 0.00 | 92 | 1016.2 |
| 20260509113204 | 53 | 281 | 1.0 | 4.0 | 0.00 | 0.00 | 0.00 | 92 | 1016.3 |
| 20260509111204 | 53 | 317 | 0.0 | 0.0 | 0.00 | 0.00 | 0.00 | 92 | 1016.4 |
| 20260509110704 | 53 | 302 | 0.0 | 0.0 | 0.00 | 0.00 | 0.00 | 92 | 1016.4 |
| 20260509110205 | 53 | 126 | 0.0 | 0.0 | 0.00 | 0.00 | 0.00 | 92 | 1016.5 |
| 20260509105705 | 53 | 126 | 0.0 | 0.0 | 0.00 | 0.00 | 0.00 | 92 | 1016.5 |
| 20260509105205 | 53 | 126 | 0.0 | 0.0 | 0.00 | 0.00 | 0.00 | 91 | 1016.6 |
| 20260509104204 | 53 | 126 | 0.0 | 0.0 | 0.00 | 0.00 | 0.00 | 91 | 1016.5 |
| 20260509103705 | 52 | 126 | 0.0 | 0.0 | 0.00 | 0.00 | 0.00 | 91 | 1016.5 |
| 20260509102705 | 52 | 126 | 0.0 | 0.0 | 0.00 | 0.00 | 0.00 | 91 | 1016.5 |
| 20260509102204 | 52 | 126 | 0.0 | 0.0 | 0.00 | 0.00 | 0.00 | 91 | 1016.6 |
| 20260509101705 | 52 | 126 | 0.0 | 0.0 | 0.00 | 0.00 | 0.00 | 91 | 1016.5 |
| 20260509101204 | 52 | 126 | 0.0 | 0.0 | 0.00 | 0.00 | 0.00 | 91 | 1016.5 |
| 20260509100206 | 52 | 126 | 0.0 | 0.0 | 0.00 | 0.00 | 0.00 | 90 | 1016.7 |
| 20260509095205 | 52 | 126 | 0.0 | 0.0 | 0.00 | 0.00 | 0.00 | 91 | 1016.6 |
| 20260509094204 | 52 | 126 | 0.0 | 0.0 | 0.00 | 0.00 | 0.00 | 91 | 1016.7 |
| 20260509093704 | 52 | 126 | 0.0 | 0.0 | 0.00 | 0.00 | 0.00 | 90 | 1016.8 |
| 20260509093206 | 52 | 126 | 0.0 | 0.0 | 0.00 | 0.00 | 0.00 | 90 | 1016.9 |
| 20260509092705 | 53 | 126 | 0.0 | 0.0 | 0.00 | 0.00 | 0.00 | 91 | 1016.9 |
| 20260509092205 | 53 | 126 | 0.0 | 0.0 | 0.00 | 0.00 | 0.00 | 91 | 1016.9 |
| 20260509091705 | 53 | 126 | 0.0 | 0.0 | 0.00 | 0.00 | 0.00 | 91 | 1016.9 |
| 20260509091205 | 53 | 126 | 0.0 | 0.0 | 0.00 | 0.00 | 0.00 | 90 | 1016.9 |
| 20260509090705 | 53 | 126 | 0.0 | 0.0 | 0.00 | 0.00 | 0.00 | 90 | 1017.0 |
| 20260509090205 | 53 | 126 | 0.0 | 0.0 | 0.00 | 0.00 | 0.00 | 90 | 1017.1 |
| 20260509085706 | 53 | 126 | 0.0 | 0.0 | 0.00 | 0.00 | 0.00 | 90 | 1017.1 |
| 20260509084704 | 53 | 126 | 0.0 | 0.0 | 0.00 | 0.00 | 0.00 | 90 | 1017.1 |
| 20260509084204 | 53 | 126 | 0.0 | 0.0 | 0.00 | 0.00 | 0.00 | 90 | 1017.1 |
| 20260509083705 | 53 | 126 | 0.0 | 0.0 | 0.00 | 0.00 | 0.00 | 90 | 1017.1 |
| 20260509083204 | 53 | 126 | 0.0 | 0.0 | 0.00 | 0.00 | 0.00 | 90 | 1017.1 |
| 20260509082705 | 52 | 126 | 0.0 | 0.0 | 0.00 | 0.00 | 0.00 | 90 | 1017.1 |
| 20260509082204 | 52 | 126 | 0.0 | 0.0 | 0.00 | 0.00 | 0.00 | 89 | 1017.2 |
| 20260509081704 | 53 | 126 | 0.0 | 0.0 | 0.00 | 0.00 | 0.00 | 89 | 1017.3 |
| 20260509081205 | 53 | 126 | 0.0 | 0.0 | 0.00 | 0.00 | 0.00 | 89 | 1017.2 |
| 20260509080705 | 53 | 126 | 0.0 | 0.0 | 0.00 | 0.00 | 0.00 | 89 | 1017.3 |
| 20260509080205 | 53 | 126 | 0.0 | 0.0 | 0.00 | 0.00 | 0.00 | 89 | 1017.3 |
| 20260509075705 | 53 | 126 | 0.0 | 0.0 | 0.00 | 0.00 | 0.00 | 89 | 1017.2 |
| 20260509075205 | 53 | 126 | 0.0 | 0.0 | 0.00 | 0.00 | 0.00 | 89 | 1017.3 |
| 20260509074705 | 53 | 126 | 0.0 | 0.0 | 0.00 | 0.00 | 0.00 | 89 | 1017.3 |
| 20260509074205 | 53 | 126 | 0.0 | 0.0 | 0.00 | 0.00 | 0.00 | 89 | 1017.3 |
| 20260509073704 | 53 | 126 | 0.0 | 0.0 | 0.00 | 0.00 | 0.00 | 89 | 1017.2 |
| 20260509073204 | 53 | 126 | 0.0 | 0.0 | 0.00 | 0.00 | 0.00 | 88 | 1017.2 |
| 20260509072705 | 53 | 126 | 0.0 | 0.0 | 0.00 | 0.00 | 0.00 | 88 | 1017.4 |
| 20260509072205 | 54 | 126 | 0.0 | 0.0 | 0.00 | 0.00 | 0.00 | 88 | 1017.4 |
| 20260509071704 | 54 | 126 | 0.0 | 0.0 | 0.00 | 0.00 | 0.00 | 88 | 1017.3 |
| 20260509071204 | 54 | 126 | 0.0 | 0.0 | 0.00 | 0.00 | 0.00 | 88 | 1017.4 |
| 20260509070704 | 54 | 126 | 0.0 | 0.0 | 0.00 | 0.00 | 0.00 | 88 | 1017.4 |
| 20260509070205 | 54 | 126 | 0.0 | 0.0 | 0.00 | 0.00 | 0.00 | 88 | 1017.4 |
| 20260509065705 | 54 | 126 | 0.0 | 0.0 | 0.00 | 0.00 | 0.00 | 88 | 1017.5 |
| 20260509065205 | 54 | 126 | 0.0 | 0.0 | 0.00 | 0.00 | 0.00 | 88 | 1017.4 |
| 20260509064705 | 54 | 126 | 0.0 | 0.0 | 0.00 | 0.00 | 0.00 | 88 | 1017.4 |
| 20260509064205 | 55 | 126 | 0.0 | 0.0 | 0.00 | 0.00 | 0.00 | 88 | 1017.3 |
| 20260509063705 | 55 | 126 | 0.0 | 0.0 | 0.00 | 0.00 | 0.00 | 88 | 1017.4 |
| 20260509063204 | 55 | 126 | 0.0 | 0.0 | 0.00 | 0.00 | 0.00 | 88 | 1017.4 |
| 20260509062205 | 55 | 126 | 0.0 | 0.0 | 0.00 | 0.00 | 0.00 | 88 | 1017.5 |
| 20260509061705 | 55 | 126 | 0.0 | 0.0 | 0.00 | 0.00 | 0.00 | 88 | 1017.5 |
| 20260509061206 | 55 | 126 | 0.0 | 0.0 | 0.00 | 0.00 | 0.00 | 88 | 1017.4 |
| 20260509060704 | 55 | 126 | 0.0 | 0.0 | 0.00 | 0.00 | 0.00 | 87 | 1017.4 |
| 20260509055705 | 56 | 126 | 0.0 | 0.0 | 0.00 | 0.00 | 0.00 | 87 | 1017.5 |
| 20260509055205 | 56 | 126 | 0.0 | 0.0 | 0.00 | 0.00 | 0.00 | 87 | 1017.6 |
| 20260509054704 | 56 | 126 | 0.0 | 0.0 | 0.00 | 0.00 | 0.00 | 87 | 1017.7 |
| 20260509054206 | 56 | 126 | 0.0 | 0.0 | 0.00 | 0.00 | 0.00 | 87 | 1017.7 |
| 20260509053704 | 56 | 126 | 0.0 | 0.0 | 0.00 | 0.00 | 0.00 | 87 | 1017.7 |
| 20260509053205 | 56 | 126 | 0.0 | 0.0 | 0.00 | 0.00 | 0.00 | 87 | 1017.7 |
| 20260509052704 | 56 | 126 | 0.0 | 0.0 | 0.00 | 0.00 | 0.00 | 87 | 1017.7 |
| 20260509052204 | 56 | 126 | 0.0 | 0.0 | 0.00 | 0.00 | 0.00 | 87 | 1017.6 |
| 20260509051705 | 56 | 126 | 0.0 | 0.0 | 0.00 | 0.00 | 0.00 | 87 | 1017.7 |
| 20260509051205 | 56 | 126 | 0.0 | 0.0 | 0.00 | 0.00 | 0.00 | 87 | 1017.6 |
| 20260509050704 | 56 | 126 | 0.0 | 3.0 | 0.00 | 0.00 | 0.00 | 87 | 1017.7 |
| 20260509050204 | 56 | 126 | 0.0 | 3.0 | 0.00 | 0.00 | 0.00 | 87 | 1017.6 |
| 20260509045204 | 57 | 126 | 0.0 | 3.0 | 0.00 | 0.00 | 0.00 | 87 | 1017.5 |
| 20260509044705 | 57 | 55 | 0.0 | 6.0 | 0.00 | 0.00 | 0.00 | 87 | 1017.4 |
| 20260509044204 | 57 | 97 | 1.0 | 6.0 | 0.00 | 0.00 | 0.00 | 86 | 1017.5 |
| 20260509043704 | 57 | 105 | 2.0 | 6.0 | 0.00 | 0.00 | 0.00 | 86 | 1017.4 |
| 20260509043205 | 57 | 101 | 2.0 | 7.0 | 0.00 | 0.00 | 0.00 | 86 | 1017.4 |
| 20260509042205 | 57 | 128 | 3.0 | 8.0 | 0.00 | 0.00 | 0.00 | 86 | 1017.2 |
| 20260509040705 | 58 | 101 | 3.0 | 8.0 | 0.00 | 0.00 | 0.00 | 85 | 1017.0 |
| 20260509040205 | 58 | 121 | 2.0 | 8.0 | 0.00 | 0.00 | 0.00 | 85 | 1016.9 |
| 20260509035704 | 58 | 123 | 3.0 | 8.0 | 0.00 | 0.00 | 0.00 | 85 | 1016.8 |
| 20260509034704 | 58 | 109 | 3.0 | 8.0 | 0.00 | 0.00 | 0.00 | 84 | 1016.7 |
| 20260509034204 | 59 | 132 | 2.0 | 8.0 | 0.00 | 0.00 | 0.00 | 83 | 1016.7 |
| 20260509033705 | 59 | 140 | 2.0 | 8.0 | 0.00 | 0.00 | 0.00 | 83 | 1016.7 |
| 20260509033205 | 59 | 124 | 2.0 | 8.0 | 0.00 | 0.00 | 0.00 | 83 | 1016.7 |
| 20260509032705 | 59 | 179 | 2.0 | 6.0 | 0.00 | 0.00 | 0.00 | 82 | 1016.6 |
| 20260509032204 | 60 | 154 | 2.0 | 8.0 | 0.00 | 0.00 | 0.00 | 81 | 1016.4 |
| 20260509030704 | 61 | 122 | 2.0 | 6.0 | 0.00 | 0.00 | 0.00 | 79 | 1016.4 |
| 20260509030205 | 62 | 184 | 1.0 | 6.0 | 0.00 | 0.00 | 0.00 | 78 | 1016.4 |
| 20260509025204 | 62 | 136 | 1.0 | 5.0 | 0.00 | 0.00 | 0.00 | 77 | 1016.3 |
| 20260509024204 | 62 | 121 | 1.0 | 5.0 | 0.00 | 0.00 | 0.00 | 77 | 1016.2 |
| 20260509023705 | 62 | 110 | 2.0 | 6.0 | 0.00 | 0.00 | 0.00 | 76 | 1016.2 |
| 20260509023205 | 63 | 111 | 2.0 | 6.0 | 0.00 | 0.00 | 0.00 | 76 | 1016.2 |
| 20260509022704 | 63 | 111 | 1.0 | 6.0 | 0.00 | 0.00 | 0.00 | 76 | 1016.2 |
| 20260509022204 | 63 | 132 | 2.0 | 6.0 | 0.00 | 0.00 | 0.00 | 75 | 1016.2 |
| 20260509021205 | 64 | 82 | 2.0 | 6.0 | 0.00 | 0.00 | 0.00 | 74 | 1016.1 |
| 20260509020704 | 64 | 138 | 2.0 | 5.0 | 0.00 | 0.00 | 0.00 | 73 | 1016.1 |
| 20260509020204 | 64 | 146 | 3.0 | 5.0 | 0.00 | 0.00 | 0.00 | 73 | 1016.1 |
| 20260509014704 | 65 | 109 | 4.0 | 8.0 | 0.00 | 0.00 | 0.00 | 71 | 1016.1 |
| 20260509013704 | 66 | 78 | 3.0 | 9.0 | 0.00 | 0.00 | 0.00 | 70 | 1016.1 |
| 20260509013205 | 66 | 109 | 3.0 | 9.0 | 0.00 | 0.00 | 0.00 | 71 | 1016.1 |
| 20260509012704 | 66 | 94 | 2.0 | 5.0 | 0.00 | 0.00 | 0.00 | 70 | 1016.0 |
| 20260509012205 | 66 | 111 | 1.0 | 6.0 | 0.00 | 0.00 | 0.00 | 71 | 1016.1 |
| 20260509011705 | 65 | 122 | 2.0 | 6.0 | 0.00 | 0.00 | 0.00 | 73 | 1016.0 |
| 20260509011205 | 65 | 123 | 3.0 | 7.0 | 0.00 | 0.00 | 0.00 | 73 | 1016.0 |
| 20260509010704 | 65 | 103 | 3.0 | 7.0 | 0.00 | 0.00 | 0.00 | 72 | 1016.1 |
| 20260509010204 | 65 | 134 | 3.0 | 9.0 | 0.00 | 0.00 | 0.00 | 72 | 1016.0 |
| 20260509005204 | 66 | 126 | 4.0 | 9.0 | 0.00 | 0.00 | 0.00 | 70 | 1016.1 |
| 20260509004204 | 67 | 136 | 3.0 | 7.0 | 0.00 | 0.00 | 0.00 | 69 | 1016.1 |
| 20260509002704 | 67 | 119 | 2.0 | 7.0 | 0.00 | 0.00 | 0.00 | 68 | 1016.3 |
| 20260509001704 | 67 | 116 | 3.0 | 8.0 | 0.00 | 0.00 | 0.00 | 69 | 1016.4 |
| 20260509001204 | 67 | 107 | 4.0 | 8.0 | 0.00 | 0.00 | 0.00 | 69 | 1016.4 |
| 20260509000704 | 68 | 130 | 3.0 | 7.0 | 0.00 | 0.00 | 0.00 | 68 | 1016.3 |
| 20260509000205 | 68 | 111 | 2.0 | 8.0 | 0.00 | 0.00 | 0.00 | 69 | 1016.5 |
| 20260508235204 | 67 | 146 | 4.0 | 10.0 | 0.00 | 0.00 | 0.00 | 69 | 1016.5 |
| 20260508234704 | 67 | 94 | 5.0 | 10.0 | 0.00 | 0.00 | 0.00 | 68 | 1016.5 |
| 20260508234204 | 68 | 106 | 4.0 | 8.0 | 0.00 | 0.00 | 0.00 | 66 | 1016.5 |
| 20260508233705 | 68 | 115 | 3.0 | 9.0 | 0.00 | 0.00 | 0.00 | 67 | 1016.5 |